Regional Weather Roundup
Issued by NWS Charleston, SC

Home | Current Version | Previous Version | Text Only | Print | Product List | Glossary On
Versions: 1 2 3 4 5 6 7 8 9 10 11 12 13 14 15 16 17 18 19 20 21 22 23 24 25 26 27 28 29 30 31 32 33 34 35 36 37 38 39 40 41 42 43 44 45 46 47 48 49 50
000
ASUS42 KCHS 250312
RWRCHS

REGIONAL WEATHER ROUNDUP
NATIONAL WEATHER SERVICE CHARLESTON SC
1100 PM EDT FRI MAR 24 2017

NOTE: "FAIR" INDICATES FEW OR NO CLOUDS BELOW 12,000 FEET WITH NO
SIGNIFICANT WEATHER AND/OR OBSTRUCTIONS TO VISIBILITY.

NOT ALL STATIONS ARE QUALITY CONTROLLED. USE DATA WITH CAUTION...
ESPECIALLY DEWPOINT OBSERVATIONS.

SCZ027-030-031-034>040-042>050-250400-
...SOUTHEAST SOUTH CAROLINA...

CITY           SKY/WX    TMP DP  RH WIND       PRES   REMARKS
N CHARLESTON   CLOUDY    60  53  77 SE7       30.38S
WATERFRONT PRK   N/A     61  58  90 CALM      30.37F
JOHNS ISLAND   FAIR      59  55  88 CALM      30.38S
PINOPOLIS        N/A     61  54  77 CALM      30.29R
MONCKS CORNER  FAIR      54  48  82 CALM      30.38S
SUMMERVILLE    FAIR      55  50  82 CALM      30.38F
BEAUFORT MCAS  CLOUDY    64  59  83 SE6       30.37S
BEAUFORT ARPT  MOCLDY    63  55  77 E5        30.37S
HILTON HEAD IS CLOUDY    64  59  82 VRB6      30.37S
WALTERBORO     CLOUDY    57  52  82 CALM      30.38S
ALLENDALE      FAIR      61  54  77 CALM      30.36R

...SOUTHERN MIDLANDS AND PEE DEE...

CITY           SKY/WX    TMP DP  RH WIND       PRES   REMARKS
GEORGETOWN     MOCLDY    52  52 100 CALM      30.40S
KINGSTREE      FAIR      55  46  71 SE3       30.37S
ORANGEBURG     CLOUDY    62  51  67 S7        30.37R
BARNWELL       FAIR      63  54  72 CALM      30.36S
AIKEN          FAIR      61  48  63 SE7       30.39R
MANNING        FAIR      59  48  67 CALM      30.37S
COLUMBIA       MOCLDY    65  49  56 S10       30.35R
SUMTER         MOCLDY    62  49  61 S8        30.34R
FLORENCE       CLEAR     59  50  72 S7        30.37S
MYRTLE BEACH   CLEAR     63  52  67 S7        30.40R
N MYRTLE BEACH CLEAR     60  54  80 S6        30.39R

$$

GAZ063-065-086>088-099>101-113>116-118-119-134>141-150-250400-
...SOUTHEAST GEORGIA...

CITY           SKY/WX    TMP DP  RH WIND       PRES   REMARKS
SAVANNAH ARPT  PTCLDY    62  54  74 E5        30.37R
HUNTER AAF     CLOUDY    60  57  88 E3        30.34R
FORT STEWART   MOCLDY    59  54  83 CALM      30.34S
STATESBORO     MOCLDY    60  56  87 CALM      30.36F
SYLVANIA       CLOUDY   N/A N/A N/A CALM      30.37S
CLAXTON        FAIR     N/A N/A N/A CALM      30.36S

...CSRA...CENTRAL AND FAR SOUTHEAST GEORGIA...

CITY           SKY/WX    TMP DP  RH WIND       PRES   REMARKS
THOMSON        CLEAR     64  49  57 SW8       30.38S
AUGUSTA-BUSH   CLOUDY    65  51  60 S9        30.34R
AUGUSTA-DANIEL PTCLDY    65  48  54 S9        30.35R
SWAINSBORO     FAIR      61  54  77 SE5       30.36S
VIDALIA        CLEAR     63  55  77 SE6       30.35S
EASTMAN        FAIR      65  45  47 SE6       30.36S
HAZLEHURST     FAIR      64  56  75 SE3       30.33S
ALMA           CLEAR     62  54  74 E5        30.34S
WAYCROSS       CLEAR     63  58  84 E5        30.34S
JESUP          FAIR      59  54  82 CALM      30.36S
BAXLEY         FAIR      63  59  88 E3        30.34F
BRUNSWICK      CLOUDY    59  59 100 CALM      30.36S
SAINT SIMONS   CLOUDY    64  57  78 E6        30.34S

$$

SCZ027-028-034-036>038-045-046-048>050-GAZ119-141-250400-
...LAKE AND SUPPLEMENTAL COASTAL OBSERVATIONS...

STATION/POSITION TIME  TEMP    WIND        PRES    WAVE   SWELL
                       AIR SEA DIR/SP/G            HT/PER HT/PER/DIR
                 (UTC) (F)     (DEG/KT/KT) (MB)    (FT/S) (FT/S/D)
WINYAH BAY       0145   59        CALM     1029.0
LAKE MURRAY      0220   64     170/ 10/ 13 1026.8
ACE BASIN NERRS  NOT AVBL
FORT PULASKI     0248   63 61  130/  4/  5 1028.3S
SAPELO ISLAND    0200   62      90/  3     1028.0

$$

ANZ835-935-AMZ111-154-330-350-352-354-370-450-454-472-250400-
...C-MAN AND BUOY OBSERVATIONS...

STATION/POSITION TIME  TEMP    WIND        PRES    WAVE   SWELL
                       AIR SEA DIR/SP/G            HT/PER HT/PER/DIR
                 (UTC) (F)     (DEG/KT/KT) (MB)    (FT/S) (FT/S/D)
BUOY 41004       0250   69 71  140/ 14/ 17 1028.3S   4/ 8   3/130/ 8
BUOY 41008       0250   66 62  110/ 10/ 14 1027.5F   4/ 6   3/120/ 6
FOLLY BEACH CMAN 0200   62     110/  5/  6 1029.3R
CAPERS NEARSHORE 0208   62     120/  4/  6 1028.7S
FRIPP NEARSHORE  0208   62 60  120/  6/  8 1028.1F


STATION/POSITION TIME  TEMP    WIND        PRES    WAVE   SWELL
                       AIR SEA DIR/SP/G            HT/PER HT/PER/DIR
                 (UTC) (F)     (DEG/KT/KT) (MB)    (FT/S) (FT/S/D)
5E ST. MARYS GA  0230      65                N/A     4/ 8   2/ 90/11
FRYING PAN BUOY  0250   68 72  170/ 10/ 14 1029.3F   3/ 9   3/ 90/ 9
BUOY 41025       0250   67 75  200/ 19/ 23 1028.8F   4/10   3/ 80/10
CAPE LOOKOUT NC  0200   64     190/ 13/ 15 1028.9F
BUOY 41002       0250   64 73   90/ 16/ 19 1030.8F   5/ 7   3/ 40/ 8
BUOY 41010       NOT AVBL
ST AUGUSTINE FL  0300   67 67  100/ 12/ 14 1027.6F


$$




USA.gov is the U.S. government's official web portal to all federal, state and local government web resources and services.